PGT86CN EGBB-LTFJ

Flight info

Callsign PGT86CN
Flight time N/A
Altitude 35000
Route DTY P166 BANTO P155 SIVDA P137 REDFA L620 TACHA DCT TIVUN DCT ESAMA DCT OSBIT DCT BOREP DCT ENITA DCT ETVIS DCT BUDEX/N0448F370 DCT INVED DCT TIMUR L606 ADORU UM19 IBODU
Aircraft A320/M-SDE3FGHIRWY/LB1

Departure

Time 2026-04-30 05:55
Airport Birmingham Airport (EGBB)

Arrival

Time N/A
Airport Istanbul Sabiha Gökçen International Airport (LTFJ)
Time Latitude Longitude Altitude Speed Heading
2026-04-30 05:34 52.45139 -1.73433 319 ft 0 kts 141°
2026-04-30 05:43 52.45144 -1.73441 323 ft 4 kts 141°
2026-04-30 05:43 52.45161 -1.73464 322 ft 4 kts 149°
2026-04-30 05:43 52.45186 -1.73476 322 ft 4 kts 191°
2026-04-30 05:44 52.45209 -1.73458 323 ft 4 kts 232°
2026-04-30 05:44 52.45203 -1.73472 322 ft 4 kts 236°
2026-04-30 05:44 52.45195 -1.73492 322 ft 0 kts 236°
2026-04-30 05:47 52.45192 -1.73499 322 ft 3 kts 236°
2026-04-30 05:47 52.45172 -1.73548 322 ft 7 kts 236°
2026-04-30 05:47 52.45149 -1.73603 323 ft 5 kts 236°
2026-04-30 05:47 52.45125 -1.73660 323 ft 7 kts 236°
2026-04-30 05:48 52.45106 -1.73725 322 ft 6 kts 261°
2026-04-30 05:48 52.45122 -1.73793 323 ft 8 kts 309°
2026-04-30 05:48 52.45178 -1.73862 323 ft 12 kts 325°
2026-04-30 05:48 52.45243 -1.73936 323 ft 11 kts 326°
2026-04-30 05:49 52.45297 -1.74002 323 ft 9 kts 314°
2026-04-30 05:49 52.45326 -1.74081 323 ft 7 kts 296°
2026-04-30 05:49 52.45359 -1.74193 322 ft 16 kts 296°
2026-04-30 05:49 52.45410 -1.74361 323 ft 16 kts 297°
2026-04-30 05:50 52.45456 -1.74511 323 ft 14 kts 296°
2026-04-30 05:50 52.45514 -1.74617 323 ft 12 kts 324°
2026-04-30 05:50 52.45579 -1.74689 320 ft 11 kts 326°
2026-04-30 05:50 52.45672 -1.74793 315 ft 19 kts 326°
2026-04-30 05:51 52.45790 -1.74924 310 ft 21 kts 326°
2026-04-30 05:51 52.45908 -1.75054 307 ft 21 kts 326°
2026-04-30 05:51 52.46025 -1.75185 306 ft 20 kts 326°
2026-04-30 05:51 52.46142 -1.75315 303 ft 19 kts 326°
2026-04-30 05:52 52.46254 -1.75439 302 ft 19 kts 325°
2026-04-30 05:52 52.46360 -1.75559 301 ft 18 kts 325°
2026-04-30 05:52 52.46463 -1.75674 305 ft 17 kts 326°
2026-04-30 05:52 52.46553 -1.75771 305 ft 13 kts 327°
2026-04-30 05:53 52.46619 -1.75846 308 ft 10 kts 315°
2026-04-30 05:53 52.46625 -1.75938 306 ft 9 kts 245°
2026-04-30 05:53 52.46589 -1.76025 305 ft 10 kts 236°
2026-04-30 05:53 52.46541 -1.76079 306 ft 7 kts 174°
2026-04-30 05:54 52.46519 -1.76061 308 ft 0 kts 146°
2026-04-30 05:54 52.46505 -1.76044 308 ft 19 kts 146°
2026-04-30 05:54 52.46174 -1.75676 310 ft 92 kts 146°
2026-04-30 05:54 52.45489 -1.74910 322 ft 145 kts 145°
2026-04-30 05:55 52.44578 -1.73880 673 ft 162 kts 144°
2026-04-30 05:55 52.43642 -1.72856 1442 ft 160 kts 142°
2026-04-30 05:55 52.42726 -1.71839 2224 ft 159 kts 142°
2026-04-30 05:55 52.41778 -1.70775 2563 ft 178 kts 143°
2026-04-30 05:56 52.40573 -1.69899 3006 ft 196 kts 163°
2026-04-30 05:56 52.39255 -1.69389 3720 ft 199 kts 161°
2026-04-30 05:56 52.37922 -1.68743 4452 ft 199 kts 151°
2026-04-30 05:56 52.36682 -1.67729 5227 ft 199 kts 147°
2026-04-30 05:57 52.35628 -1.66304 5948 ft 199 kts 127°
2026-04-30 05:57 52.34984 -1.64207 6366 ft 220 kts 105°
2026-04-30 05:57 52.34692 -1.61606 6715 ft 243 kts 103°
2026-04-30 05:57 52.34381 -1.58842 7344 ft 250 kts 105°
2026-04-30 05:58 52.33774 -1.56180 8084 ft 252 kts 118°
2026-04-30 05:58 52.32963 -1.53613 8906 ft 256 kts 118°
2026-04-30 05:58 52.32141 -1.51014 9668 ft 259 kts 118°
2026-04-30 05:58 52.31578 -1.49232 10182 ft 262 kts 118°
2026-04-30 05:59 52.30704 -1.46598 10861 ft 266 kts 120°
2026-04-30 05:59 52.29784 -1.44000 11526 ft 270 kts 121°
2026-04-30 05:59 52.28808 -1.41303 12211 ft 274 kts 122°
2026-04-30 05:59 52.27828 -1.38609 12878 ft 278 kts 122°
2026-04-30 06:00 52.26834 -1.35865 13543 ft 283 kts 122°
2026-04-30 06:00 52.25845 -1.33122 14191 ft 287 kts 122°
2026-04-30 06:00 52.24830 -1.30300 14774 ft 290 kts 122°
2026-04-30 06:00 52.23805 -1.27449 15402 ft 292 kts 122°
2026-04-30 06:01 52.22772 -1.24587 16026 ft 294 kts 121°
2026-04-30 06:01 52.21734 -1.21704 16667 ft 295 kts 121°
2026-04-30 06:01 52.20694 -1.18811 17294 ft 297 kts 121°
2026-04-30 06:01 52.19661 -1.15884 17927 ft 299 kts 117°
2026-04-30 06:02 52.18995 -1.12660 18514 ft 304 kts 102°
2026-04-30 06:02 52.18896 -1.09185 18888 ft 317 kts 87°
2026-04-30 06:02 52.19461 -1.05596 19006 ft 339 kts 71°
2026-04-30 06:02 52.20412 -1.01977 19122 ft 355 kts 71°
2026-04-30 06:03 52.21399 -0.98195 19252 ft 369 kts 71°
2026-04-30 06:03 52.22404 -0.94303 19560 ft 375 kts 71°
2026-04-30 06:03 52.23414 -0.90363 19998 ft 378 kts 71°
2026-04-30 06:03 52.24432 -0.86383 20459 ft 381 kts 71°
2026-04-30 06:04 52.25270 -0.82295 20912 ft 381 kts 77°
2026-04-30 06:04 52.26025 -0.78127 21392 ft 384 kts 77°
2026-04-30 06:04 52.26776 -0.73940 21831 ft 386 kts 77°
2026-04-30 06:05 52.28296 -0.65455 22704 ft 392 kts 77°
2026-04-30 06:05 52.29065 -0.61175 23129 ft 394 kts 77°
2026-04-30 06:05 52.29839 -0.56858 23553 ft 397 kts 77°
2026-04-30 06:05 52.30614 -0.52521 23942 ft 400 kts 77°
2026-04-30 06:06 52.31392 -0.48148 24300 ft 402 kts 77°
2026-04-30 06:06 52.32171 -0.43750 24650 ft 404 kts 77°
2026-04-30 06:06 52.32954 -0.39323 25009 ft 406 kts 77°
2026-04-30 06:06 52.33733 -0.34880 25346 ft 408 kts 77°
2026-04-30 06:07 52.34515 -0.30400 25672 ft 410 kts 77°
2026-04-30 06:07 52.35284 -0.25904 26008 ft 411 kts 79°
2026-04-30 06:07 52.35714 -0.21304 26329 ft 410 kts 89°
2026-04-30 06:07 52.35731 -0.16644 26652 ft 410 kts 93°
2026-04-30 06:08 52.35697 -0.12029 26975 ft 412 kts 93°
2026-04-30 06:08 52.35667 -0.07340 27310 ft 414 kts 93°
2026-04-30 06:08 52.35638 -0.02624 27630 ft 415 kts 93°
2026-04-30 06:08 52.35619 0.00569 27849 ft 416 kts 93°
2026-04-30 06:09 52.35617 0.00811 27868 ft 416 kts 93°
2026-04-30 06:09 52.35511 0.03926 28041 ft 414 kts 98°
2026-04-30 06:09 52.35103 0.08599 28308 ft 417 kts 100°
2026-04-30 06:09 52.34683 0.13306 28594 ft 419 kts 100°
2026-04-30 06:10 52.34265 0.18026 28889 ft 420 kts 100°
2026-04-30 06:10 52.33847 0.22759 29172 ft 422 kts 100°
2026-04-30 06:10 52.33426 0.27517 29449 ft 424 kts 100°
2026-04-30 06:10 52.33002 0.32296 29726 ft 425 kts 100°
2026-04-30 06:11 52.32574 0.37091 29996 ft 427 kts 100°
2026-04-30 06:11 52.32141 0.41893 30260 ft 428 kts 100°
2026-04-30 06:11 52.31702 0.46715 30498 ft 430 kts 100°
2026-04-30 06:11 52.31260 0.51548 30803 ft 429 kts 100°
2026-04-30 06:12 52.30818 0.56358 31131 ft 428 kts 101°
2026-04-30 06:12 52.30374 0.61162 31452 ft 427 kts 101°
2026-04-30 06:12 52.29932 0.65955 31762 ft 426 kts 101°
2026-04-30 06:12 52.29488 0.70730 32090 ft 425 kts 101°
2026-04-30 06:13 52.29039 0.75504 32399 ft 425 kts 101°
2026-04-30 06:13 52.28593 0.80259 32712 ft 424 kts 101°
2026-04-30 06:13 52.28146 0.85008 33019 ft 423 kts 101°
2026-04-30 06:13 52.27698 0.89759 33320 ft 422 kts 101°
2026-04-30 06:14 52.27247 0.94491 33624 ft 421 kts 101°
2026-04-30 06:14 52.26793 0.99212 33927 ft 421 kts 101°
2026-04-30 06:14 52.26337 1.03921 34225 ft 420 kts 101°
2026-04-30 06:14 52.25880 1.08632 34494 ft 420 kts 101°
2026-04-30 06:15 52.25424 1.13332 34737 ft 419 kts 101°
2026-04-30 06:15 52.24971 1.18034 34956 ft 420 kts 101°
2026-04-30 06:15 52.24517 1.22739 35172 ft 420 kts 101°
2026-04-30 06:15 52.24059 1.27450 35308 ft 420 kts 101°
2026-04-30 06:16 52.23597 1.32145 35340 ft 419 kts 101°
2026-04-30 06:16 52.22665 1.41524 35341 ft 419 kts 101°
2026-04-30 06:17 52.21724 1.50891 35350 ft 419 kts 101°
2026-04-30 06:17 52.20779 1.60252 35346 ft 418 kts 101°
2026-04-30 06:18 52.19829 1.69609 35348 ft 418 kts 101°
2026-04-30 06:18 52.18868 1.78960 35355 ft 419 kts 101°
2026-04-30 06:19 52.17899 1.88318 35357 ft 419 kts 101°
2026-04-30 06:19 52.16931 1.97662 35359 ft 418 kts 101°
2026-04-30 06:20 52.15952 2.07000 35358 ft 418 kts 101°
2026-04-30 06:20 52.14970 2.16276 35359 ft 418 kts 101°
2026-04-30 06:21 52.13979 2.25600 35361 ft 418 kts 101°
2026-04-30 06:21 52.12978 2.34914 35367 ft 418 kts 101°
2026-04-30 06:22 52.12018 2.44233 35369 ft 418 kts 96°
2026-04-30 06:22 52.12419 2.53643 35369 ft 420 kts 77°
2026-04-30 06:23 52.14141 2.62752 35373 ft 421 kts 75°
2026-04-30 06:23 52.15871 2.71851 35377 ft 421 kts 75°
2026-04-30 06:24 52.17586 2.80969 35380 ft 421 kts 75°
2026-04-30 06:24 52.19293 2.90075 35386 ft 420 kts 75°
2026-04-30 06:25 52.21000 2.99187 35388 ft 420 kts 75°
2026-04-30 06:25 52.22695 3.08296 35386 ft 420 kts 75°
2026-04-30 06:26 52.24307 3.17434 35388 ft 418 kts 81°
2026-04-30 06:26 52.24422 3.26834 35381 ft 416 kts 99°
2026-04-30 06:27 52.22640 3.35777 35381 ft 416 kts 111°
2026-04-30 06:27 52.20422 3.44498 35372 ft 416 kts 111°
2026-04-30 06:28 52.18212 3.53157 35370 ft 417 kts 111°
2026-04-30 06:28 52.15963 3.61937 35374 ft 417 kts 111°
2026-04-30 06:29 52.13717 3.70644 35382 ft 418 kts 111°
2026-04-30 06:29 52.11475 3.79306 35382 ft 418 kts 111°
2026-04-30 06:30 52.09222 3.87998 35390 ft 418 kts 111°
2026-04-30 06:30 52.06954 3.96707 35396 ft 418 kts 111°
2026-04-30 06:31 52.04674 4.05403 35397 ft 418 kts 111°
2026-04-30 06:31 52.02389 4.14100 35398 ft 419 kts 111°
2026-04-30 06:32 52.00097 4.22788 35401 ft 419 kts 111°
2026-04-30 06:32 51.97798 4.31473 35403 ft 419 kts 111°
2026-04-30 06:33 51.95493 4.40150 35405 ft 419 kts 111°
2026-04-30 06:33 51.93182 4.48818 35404 ft 419 kts 112°
2026-04-30 06:34 51.90861 4.57476 35405 ft 419 kts 112°
2026-04-30 06:34 51.88537 4.66122 35404 ft 419 kts 112°
2026-04-30 06:35 51.86203 4.74764 35397 ft 419 kts 112°
2026-04-30 06:35 51.83864 4.83397 35395 ft 419 kts 112°
2026-04-30 06:36 51.81520 4.92020 35390 ft 419 kts 112°
2026-04-30 06:36 51.79168 5.00637 35390 ft 419 kts 112°
2026-04-30 06:37 51.76813 5.09240 35404 ft 419 kts 112°
2026-04-30 06:37 51.74450 5.17833 35406 ft 419 kts 112°
2026-04-30 06:38 51.72085 5.26411 35402 ft 419 kts 112°
2026-04-30 06:38 51.69711 5.34984 35405 ft 419 kts 112°
2026-04-30 06:39 51.67325 5.43546 35405 ft 419 kts 112°
2026-04-30 06:39 51.64934 5.52099 35403 ft 418 kts 112°
2026-04-30 06:40 51.62550 5.60639 35405 ft 418 kts 111°
2026-04-30 06:40 51.60160 5.69166 35404 ft 418 kts 112°
2026-04-30 06:41 51.57756 5.77677 35404 ft 418 kts 112°
2026-04-30 06:41 51.55348 5.86173 35405 ft 418 kts 111°
2026-04-30 06:42 51.52933 5.94663 35422 ft 418 kts 112°
2026-04-30 06:42 51.50516 6.03139 35428 ft 417 kts 111°
2026-04-30 06:43 51.48096 6.11605 35426 ft 417 kts 111°
2026-04-30 06:43 51.45671 6.20062 35423 ft 417 kts 111°
2026-04-30 06:44 51.43240 6.28505 35423 ft 417 kts 111°
2026-04-30 06:44 51.40813 6.36885 35424 ft 417 kts 111°
2026-04-30 06:45 51.38369 6.45308 35427 ft 417 kts 111°
2026-04-30 06:45 51.35918 6.53721 35426 ft 417 kts 111°
2026-04-30 06:46 51.33861 6.60772 35424 ft 417 kts 111°
2026-04-30 06:46 51.31397 6.69181 35428 ft 418 kts 111°
2026-04-30 06:47 51.28920 6.77583 35425 ft 418 kts 112°
2026-04-30 06:47 51.26446 6.85982 35428 ft 418 kts 111°
2026-04-30 06:48 51.23956 6.94374 35427 ft 419 kts 112°
2026-04-30 06:48 51.21618 7.02233 35427 ft 419 kts 112°
2026-04-30 06:49 51.19119 7.10626 35424 ft 419 kts 111°
2026-04-30 06:49 51.16609 7.19014 35424 ft 419 kts 112°
2026-04-30 06:50 51.14083 7.27402 35427 ft 420 kts 112°
2026-04-30 06:50 51.11560 7.35781 35433 ft 420 kts 111°
2026-04-30 06:51 51.09047 7.44097 35431 ft 420 kts 112°
2026-04-30 06:51 51.06509 7.52454 35436 ft 420 kts 112°
2026-04-30 06:52 51.03963 7.60819 35432 ft 420 kts 112°
2026-04-30 06:52 51.01407 7.69163 35434 ft 420 kts 112°
2026-04-30 06:53 50.98856 7.77501 35421 ft 420 kts 111°
2026-04-30 06:53 50.96305 7.85824 35423 ft 420 kts 112°
2026-04-30 06:54 50.93730 7.94130 35419 ft 420 kts 114°
2026-04-30 06:54 50.90195 8.01595 35423 ft 431 kts 131°
2026-04-30 06:55 50.85867 8.08163 35412 ft 431 kts 131°
2026-04-30 06:55 50.81556 8.14735 35405 ft 431 kts 131°
2026-04-30 06:56 50.77270 8.21263 35403 ft 431 kts 131°
2026-04-30 06:56 50.72946 8.27828 35409 ft 431 kts 131°
2026-04-30 06:57 50.68615 8.34384 35420 ft 432 kts 131°
2026-04-30 06:57 50.64274 8.40937 35428 ft 432 kts 131°
2026-04-30 06:58 50.59931 8.47476 35437 ft 432 kts 131°
2026-04-30 06:58 50.55577 8.54008 35442 ft 433 kts 131°
2026-04-30 06:59 50.51215 8.60524 35454 ft 433 kts 131°
2026-04-30 06:59 50.46849 8.67043 35453 ft 433 kts 130°
2026-04-30 07:00 50.42485 8.73549 35453 ft 433 kts 130°
2026-04-30 07:00 50.38109 8.80042 35452 ft 433 kts 131°
2026-04-30 07:01 50.34114 8.86953 35448 ft 423 kts 117°
2026-04-30 07:01 50.31492 8.95069 35440 ft 416 kts 109°
2026-04-30 07:02 50.29105 9.03333 35436 ft 417 kts 109°
2026-04-30 07:02 50.26690 9.11586 35438 ft 418 kts 109°
2026-04-30 07:03 50.24276 9.19843 35433 ft 418 kts 109°
2026-04-30 07:03 50.21866 9.28104 35432 ft 418 kts 109°
2026-04-30 07:04 50.19447 9.36367 35428 ft 419 kts 109°
2026-04-30 07:04 50.17018 9.44617 35434 ft 419 kts 109°
2026-04-30 07:05 50.13347 9.56994 35422 ft 419 kts 109°
2026-04-30 07:05 50.10897 9.65238 35426 ft 419 kts 109°
2026-04-30 07:06 50.08434 9.73478 35433 ft 419 kts 109°
2026-04-30 07:06 50.06551 9.81936 35436 ft 409 kts 95°
2026-04-30 07:07 50.05522 9.90650 35444 ft 410 kts 96°
2026-04-30 07:07 50.04470 9.99364 35446 ft 410 kts 96°
2026-04-30 07:08 50.03406 10.08075 35449 ft 410 kts 96°
2026-04-30 07:08 50.02333 10.16794 35453 ft 411 kts 96°
2026-04-30 07:09 50.01258 10.25530 35456 ft 411 kts 96°
2026-04-30 07:09 50.00171 10.34262 35459 ft 411 kts 96°
2026-04-30 07:10 49.99082 10.42993 35467 ft 412 kts 96°
2026-04-30 07:10 49.97995 10.51663 35466 ft 412 kts 96°
2026-04-30 07:11 49.96891 10.60389 35466 ft 412 kts 96°
2026-04-30 07:11 49.95761 10.69095 35463 ft 412 kts 96°
2026-04-30 07:12 49.94570 10.77801 35465 ft 412 kts 96°
2026-04-30 07:12 49.93372 10.86491 35468 ft 411 kts 96°
2026-04-30 07:13 49.92182 10.95175 35462 ft 411 kts 96°
2026-04-30 07:13 49.90991 11.03853 35460 ft 411 kts 96°
2026-04-30 07:14 49.89795 11.12521 35466 ft 411 kts 96°
2026-04-30 07:14 49.88591 11.21190 35469 ft 411 kts 96°
2026-04-30 07:15 49.87379 11.29841 35468 ft 411 kts 96°
2026-04-30 07:15 49.86174 11.38431 35470 ft 410 kts 96°
2026-04-30 07:16 49.84942 11.47124 35471 ft 410 kts 96°
2026-04-30 07:16 49.83718 11.55686 35476 ft 410 kts 96°
2026-04-30 07:17 49.82478 11.64311 35480 ft 410 kts 96°
2026-04-30 07:18 49.80612 11.77227 35485 ft 410 kts 96°
2026-04-30 07:18 49.79366 11.85833 35483 ft 410 kts 96°
2026-04-30 07:19 49.78115 11.94433 35486 ft 410 kts 96°
2026-04-30 07:19 49.76849 12.03024 35484 ft 410 kts 96°
2026-04-30 07:20 49.75568 12.11613 35485 ft 409 kts 96°
2026-04-30 07:20 49.74291 12.20187 35488 ft 409 kts 96°
2026-04-30 07:21 49.73031 12.28706 35482 ft 409 kts 96°
2026-04-30 07:21 49.71746 12.37280 35482 ft 409 kts 96°
2026-04-30 07:22 49.69797 12.50121 35486 ft 409 kts 96°
2026-04-30 07:22 49.68588 12.58705 35490 ft 409 kts 95°
2026-04-30 07:23 49.67414 12.67280 35490 ft 408 kts 95°
2026-04-30 07:23 49.66215 12.75860 35489 ft 409 kts 95°
2026-04-30 07:24 49.64213 12.84184 35496 ft 424 kts 113°
2026-04-30 07:24 49.60853 12.91782 35499 ft 430 kts 117°
2026-04-30 07:25 49.57419 12.99326 35494 ft 430 kts 117°
2026-04-30 07:25 49.53988 13.06865 35495 ft 430 kts 117°
2026-04-30 07:26 49.50549 13.14403 35493 ft 430 kts 117°
2026-04-30 07:26 49.47097 13.21938 35492 ft 431 kts 117°
2026-04-30 07:27 49.43661 13.29413 35486 ft 431 kts 117°
2026-04-30 07:27 49.40198 13.36941 35474 ft 432 kts 117°
2026-04-30 07:28 49.36729 13.44468 35479 ft 432 kts 117°
2026-04-30 07:28 49.33240 13.51995 35478 ft 433 kts 118°
2026-04-30 07:29 49.29748 13.59514 35478 ft 434 kts 118°
2026-04-30 07:29 49.26249 13.67038 35478 ft 434 kts 118°
2026-04-30 07:30 49.20978 13.78312 35482 ft 434 kts 118°
2026-04-30 07:31 49.17461 13.85817 35477 ft 434 kts 118°
2026-04-30 07:31 49.13938 13.93323 35477 ft 435 kts 118°
2026-04-30 07:32 49.10403 14.00813 35478 ft 435 kts 118°
2026-04-30 07:32 49.06861 14.08309 35476 ft 436 kts 118°
2026-04-30 07:33 49.03312 14.15806 35482 ft 436 kts 118°
2026-04-30 07:33 48.99743 14.23298 35482 ft 437 kts 118°
2026-04-30 07:34 48.96165 14.30787 35480 ft 438 kts 118°
2026-04-30 07:34 48.92697 14.38296 35482 ft 435 kts 116°
2026-04-30 07:35 48.89532 14.46108 35478 ft 433 kts 114°
2026-04-30 07:35 48.86427 14.53964 35473 ft 434 kts 114°
2026-04-30 07:36 48.83239 14.61771 35475 ft 436 kts 115°
2026-04-30 07:36 48.80513 14.68285 35474 ft 437 kts 115°
2026-04-30 07:37 48.77250 14.76064 35470 ft 437 kts 115°
2026-04-30 07:37 48.74016 14.83804 35470 ft 438 kts 115°
2026-04-30 07:38 48.70751 14.91604 35463 ft 439 kts 115°
2026-04-30 07:38 48.67480 14.99406 35463 ft 439 kts 116°
2026-04-30 07:39 48.64196 15.07208 35464 ft 440 kts 116°
2026-04-30 07:39 48.60895 15.15005 35461 ft 441 kts 116°
2026-04-30 07:40 48.57576 15.22811 35460 ft 442 kts 116°
2026-04-30 07:40 48.54253 15.30630 35465 ft 443 kts 116°
2026-04-30 07:41 48.50917 15.38447 35466 ft 444 kts 116°
2026-04-30 07:41 48.47566 15.46290 35469 ft 445 kts 116°
2026-04-30 07:42 48.44208 15.54125 35464 ft 446 kts 117°
2026-04-30 07:42 48.40835 15.61970 35465 ft 446 kts 117°
2026-04-30 07:43 48.37453 15.69809 35472 ft 447 kts 117°
2026-04-30 07:43 48.34066 15.77653 35472 ft 448 kts 117°
2026-04-30 07:44 48.30662 15.85499 35471 ft 449 kts 117°
2026-04-30 07:44 48.27267 15.93287 35466 ft 449 kts 118°
2026-04-30 07:45 48.23848 16.01142 35467 ft 450 kts 118°
2026-04-30 07:45 48.20414 16.08999 35471 ft 451 kts 118°
2026-04-30 07:46 48.16962 16.16845 35468 ft 452 kts 118°
2026-04-30 07:46 48.13495 16.24704 35464 ft 452 kts 118°
2026-04-30 07:47 48.10030 16.32560 35464 ft 453 kts 119°
2026-04-30 07:47 48.06554 16.40427 35462 ft 454 kts 119°
2026-04-30 07:48 48.03059 16.48294 35462 ft 455 kts 119°
2026-04-30 07:48 47.99555 16.56164 35459 ft 455 kts 120°
2026-04-30 07:49 47.96048 16.64030 35459 ft 456 kts 120°
2026-04-30 07:49 47.92517 16.71899 35458 ft 456 kts 120°
2026-04-30 07:50 47.88981 16.79763 35450 ft 457 kts 120°
2026-04-30 07:50 47.85434 16.87624 35448 ft 458 kts 120°
2026-04-30 07:51 47.81876 16.95487 35445 ft 458 kts 120°
2026-04-30 07:51 47.78317 17.03357 35442 ft 459 kts 121°
2026-04-30 07:52 47.74748 17.11218 35441 ft 459 kts 121°
2026-04-30 07:52 47.71170 17.19069 35434 ft 459 kts 121°
2026-04-30 07:53 47.67605 17.26874 35430 ft 460 kts 121°
2026-04-30 07:53 47.64004 17.34721 35427 ft 460 kts 121°
2026-04-30 07:54 47.60402 17.42563 35428 ft 461 kts 121°
2026-04-30 07:54 47.56789 17.50413 35430 ft 461 kts 121°
2026-04-30 07:55 47.53156 17.58253 35432 ft 462 kts 121°
2026-04-30 07:55 47.49521 17.66088 35432 ft 462 kts 121°
2026-04-30 07:56 47.45877 17.73931 35428 ft 462 kts 121°
2026-04-30 07:56 47.42226 17.81761 35423 ft 463 kts 122°
2026-04-30 07:57 47.38565 17.89582 35418 ft 463 kts 122°
2026-04-30 07:57 47.34895 17.97404 35411 ft 464 kts 122°
2026-04-30 07:58 47.31224 18.05225 35403 ft 464 kts 122°
2026-04-30 07:58 47.27543 18.13046 35401 ft 465 kts 122°
2026-04-30 07:59 47.23847 18.20854 35397 ft 465 kts 122°
2026-04-30 07:59 47.20164 18.28609 35399 ft 466 kts 122°
2026-04-30 08:00 47.14587 18.40322 35399 ft 467 kts 122°
2026-04-30 08:00 47.10858 18.48126 35396 ft 467 kts 122°
2026-04-30 08:01 47.07100 18.55988 35393 ft 468 kts 122°
2026-04-30 08:01 47.03377 18.63748 35389 ft 468 kts 122°
2026-04-30 08:02 46.97738 18.75444 35390 ft 469 kts 123°
2026-04-30 08:03 46.90187 18.91016 35383 ft 469 kts 123°
2026-04-30 08:04 46.86404 18.98793 35384 ft 470 kts 123°
2026-04-30 08:04 46.82614 19.06568 35389 ft 470 kts 123°
2026-04-30 08:05 46.78820 19.14331 35388 ft 470 kts 123°
2026-04-30 08:05 46.75016 19.22081 35387 ft 470 kts 124°
2026-04-30 08:06 46.71201 19.29830 35381 ft 470 kts 124°
2026-04-30 08:06 46.67383 19.37578 35374 ft 471 kts 124°
2026-04-30 08:07 46.63560 19.45316 35367 ft 471 kts 124°
2026-04-30 08:07 46.59720 19.53055 35364 ft 472 kts 124°
2026-04-30 08:08 46.55895 19.60742 35360 ft 473 kts 124°
2026-04-30 08:08 46.52030 19.68492 35353 ft 474 kts 124°
2026-04-30 08:09 46.48154 19.76228 35351 ft 475 kts 125°
2026-04-30 08:09 46.44267 19.83976 35351 ft 475 kts 125°
2026-04-30 08:10 46.40183 19.91512 35351 ft 476 kts 129°
2026-04-30 08:10 46.35806 19.98726 35350 ft 477 kts 131°
2026-04-30 08:11 46.31407 20.05905 35349 ft 477 kts 130°
2026-04-30 08:11 46.27069 20.13181 35347 ft 477 kts 130°
2026-04-30 08:12 46.22763 20.20480 35346 ft 478 kts 130°
2026-04-30 08:12 46.18441 20.27764 35344 ft 478 kts 130°
2026-04-30 08:13 46.14097 20.35038 35341 ft 478 kts 131°
2026-04-30 08:13 46.09750 20.42291 35329 ft 479 kts 131°
2026-04-30 08:14 46.05389 20.49550 35338 ft 479 kts 131°
2026-04-30 08:14 46.01024 20.56809 35325 ft 480 kts 131°
2026-04-30 08:15 45.96677 20.64009 35321 ft 480 kts 131°
2026-04-30 08:15 45.92263 20.71298 35318 ft 481 kts 131°
2026-04-30 08:16 45.87875 20.78539 35326 ft 481 kts 132°
2026-04-30 08:16 45.83479 20.85776 35318 ft 481 kts 132°
2026-04-30 08:17 45.79063 20.92998 35319 ft 481 kts 132°
2026-04-30 08:17 45.74643 21.00203 35307 ft 481 kts 133°
2026-04-30 08:18 45.70256 21.07360 35316 ft 482 kts 133°
2026-04-30 08:18 45.65834 21.14565 35299 ft 482 kts 133°
2026-04-30 08:19 45.61402 21.21752 35312 ft 482 kts 133°
2026-04-30 08:19 45.56957 21.28939 35303 ft 483 kts 133°
2026-04-30 08:20 45.52510 21.36118 35295 ft 483 kts 133°
2026-04-30 08:20 45.48054 21.43293 35290 ft 483 kts 134°
2026-04-30 08:21 45.43588 21.50464 35286 ft 484 kts 134°
2026-04-30 08:21 45.39116 21.57620 35281 ft 484 kts 134°
2026-04-30 08:22 45.34630 21.64777 35278 ft 485 kts 134°
2026-04-30 08:22 45.30140 21.71936 35278 ft 485 kts 134°
2026-04-30 08:23 45.25639 21.79092 35271 ft 486 kts 134°
2026-04-30 08:23 45.21137 21.86232 35269 ft 486 kts 135°
2026-04-30 08:24 45.17384 21.92165 35265 ft 486 kts 135°
2026-04-30 08:24 45.12105 22.00487 35263 ft 486 kts 135°
2026-04-30 08:25 45.08346 22.06404 35262 ft 486 kts 135°
2026-04-30 08:25 45.03812 22.13522 35261 ft 487 kts 135°
2026-04-30 08:26 44.99269 22.20622 35258 ft 487 kts 135°
2026-04-30 08:26 44.94725 22.27723 35258 ft 488 kts 135°
2026-04-30 08:27 44.90175 22.34823 35258 ft 488 kts 136°
2026-04-30 08:27 44.85609 22.41907 35261 ft 488 kts 136°
2026-04-30 08:28 44.81027 22.48985 35262 ft 488 kts 136°
2026-04-30 08:28 44.76448 22.56048 35266 ft 489 kts 136°
2026-04-30 08:29 44.71866 22.63134 35270 ft 489 kts 136°
2026-04-30 08:29 44.67281 22.70196 35274 ft 490 kts 136°
2026-04-30 08:30 44.62674 22.77255 35277 ft 490 kts 136°
2026-04-30 08:30 44.58063 22.84312 35278 ft 490 kts 136°
2026-04-30 08:31 44.53449 22.91347 35276 ft 491 kts 137°
2026-04-30 08:31 44.48825 22.98388 35275 ft 491 kts 136°
2026-04-30 08:32 44.44195 23.05423 35275 ft 491 kts 137°
2026-04-30 08:32 44.39556 23.12449 35271 ft 492 kts 137°
2026-04-30 08:33 44.34909 23.19462 35271 ft 492 kts 137°
2026-04-30 08:33 44.30253 23.26472 35266 ft 492 kts 137°
2026-04-30 08:34 44.25601 23.33468 35272 ft 492 kts 137°
2026-04-30 08:34 44.20946 23.40458 35271 ft 492 kts 137°
2026-04-30 08:35 44.16285 23.47430 35266 ft 492 kts 137°
2026-04-30 08:35 44.11614 23.54381 35262 ft 491 kts 138°
2026-04-30 08:36 44.06945 23.61332 35262 ft 492 kts 138°
2026-04-30 08:36 44.02302 23.68239 35257 ft 492 kts 138°
2026-04-30 08:37 43.97625 23.75161 35248 ft 491 kts 139°
2026-04-30 08:37 43.92905 23.82122 35245 ft 492 kts 139°
2026-04-30 08:38 43.88245 23.88988 35235 ft 492 kts 139°
2026-04-30 08:38 43.83554 23.95890 35234 ft 492 kts 139°
2026-04-30 08:39 43.78852 24.02792 35230 ft 493 kts 139°
2026-04-30 08:39 43.74143 24.09680 35225 ft 493 kts 139°
2026-04-30 08:40 43.69422 24.16572 35221 ft 493 kts 139°
2026-04-30 08:40 43.64706 24.23455 35219 ft 493 kts 139°
2026-04-30 08:41 43.59974 24.30319 35221 ft 494 kts 140°
2026-04-30 08:41 43.55229 24.37168 35203 ft 494 kts 140°
2026-04-30 08:42 43.50483 24.44021 35190 ft 494 kts 140°
2026-04-30 08:42 43.45739 24.50874 35194 ft 495 kts 140°
2026-04-30 08:43 43.40981 24.57731 35186 ft 495 kts 140°
2026-04-30 08:43 43.36245 24.64521 35185 ft 495 kts 140°
2026-04-30 08:44 43.31468 24.71347 35175 ft 496 kts 140°
2026-04-30 08:44 43.26684 24.78167 35177 ft 496 kts 140°
2026-04-30 08:45 43.21900 24.84977 35171 ft 496 kts 140°
2026-04-30 08:45 43.17112 24.91784 35174 ft 496 kts 140°
2026-04-30 08:46 43.12325 24.98580 35172 ft 495 kts 140°
2026-04-30 08:46 43.07423 25.05149 35172 ft 492 kts 143°
2026-04-30 08:47 43.02414 25.11507 35172 ft 491 kts 143°
2026-04-30 08:47 42.97416 25.17863 35165 ft 490 kts 143°
2026-04-30 08:48 42.92461 25.24264 35166 ft 490 kts 143°
2026-04-30 08:48 42.87523 25.30674 35167 ft 489 kts 143°
2026-04-30 08:49 42.82582 25.37050 35173 ft 489 kts 143°
2026-04-30 08:49 42.77636 25.43396 35175 ft 488 kts 143°
2026-04-30 08:50 42.72696 25.49717 35168 ft 487 kts 143°
2026-04-30 08:50 42.67761 25.56026 35169 ft 487 kts 143°
2026-04-30 08:51 42.62833 25.62315 35170 ft 486 kts 143°
2026-04-30 08:51 42.57902 25.68582 35169 ft 485 kts 143°
2026-04-30 08:52 42.52969 25.74833 35172 ft 485 kts 143°
2026-04-30 08:52 42.48037 25.81071 35171 ft 485 kts 143°
2026-04-30 08:53 42.43108 25.87301 35171 ft 485 kts 143°
2026-04-30 08:53 42.38215 25.93475 35176 ft 484 kts 143°
2026-04-30 08:54 42.33290 25.99680 35176 ft 483 kts 143°
2026-04-30 08:54 42.28365 26.05865 35167 ft 483 kts 143°
2026-04-30 08:55 42.23445 26.12019 35166 ft 482 kts 143°
2026-04-30 08:55 42.18524 26.18148 35165 ft 481 kts 143°
2026-04-30 08:56 42.13596 26.24258 35169 ft 481 kts 143°
2026-04-30 08:56 42.08669 26.30350 35164 ft 480 kts 143°
2026-04-30 08:57 42.03752 26.36425 35164 ft 480 kts 143°
2026-04-30 08:57 41.98833 26.42485 35163 ft 479 kts 143°
2026-04-30 08:58 41.93919 26.48540 35162 ft 479 kts 142°
2026-04-30 08:58 41.89006 26.54582 35158 ft 479 kts 143°
2026-04-30 08:59 41.84479 26.61189 35149 ft 483 kts 134°
2026-04-30 08:59 41.80194 26.68135 35146 ft 483 kts 134°
2026-04-30 09:00 41.75903 26.75062 35144 ft 483 kts 134°
2026-04-30 09:00 41.71605 26.81980 35146 ft 483 kts 134°
2026-04-30 09:01 41.67308 26.88887 35146 ft 483 kts 134°
2026-04-30 09:01 41.63039 26.95734 35150 ft 482 kts 134°
2026-04-30 09:02 41.56573 27.06078 34217 ft 485 kts 134°
2026-04-30 09:02 41.54392 27.09491 33580 ft 481 kts 136°
2026-04-30 09:02 41.52141 27.12753 32998 ft 476 kts 138°
2026-04-30 09:03 41.49836 27.15893 32427 ft 471 kts 139°
2026-04-30 09:03 41.47521 27.18945 31882 ft 466 kts 140°
2026-04-30 09:04 41.45656 27.21424 31367 ft 464 kts 139°